Regional Weather Roundup
Issued by NWS

Home | Current Version | Previous Version | Graphics & Text | Print | Product List | Glossary On
Versions: 1 2 3 4 5 6 7 8 9 10 11 12 13 14 15 16 17 18 19 20 21 22 23 24 25 26 27 28 29 30 31 32 33 34 35 36 37 38 39 40 41 42 43 44 45 46 47 48 49 50
000
ASUS43 KDMX 041207
RWRIA

WEATHER ROUNDUP FOR IOWA
NATIONAL WEATHER SERVICE DES MOINES IA
700 AM CDT FRI SEP 04 2015

NOTE: "FAIR" INDICATES FEW OR NO CLOUDS BELOW 12,000 FEET WITH NO
SIGNIFICANT WEATHER AND/OR OBSTRUCTIONS TO VISIBILITY.

* - THESE STATIONS ARE NOT NWS STATIONS...THUS NOT UNDER NWS
QUALITY CONTROL.  THEY ALSO DO NOT REPORT WEATHER SUCH
AS PRECIPITATION OR FOG.

IAZ001>003-012>014-020>022-031>034-043>046-041300-
   NORTHWEST IOWA

CITY           SKY/WX    TMP DP  RH WIND       PRES   REMARKS
CARROLL *      CLEAR     72  70  94 S10       29.92R
CHEROKEE *     PTCLDY    70  69  97 S6        29.90R
DENISON *      PTCLDY    72  68  88 S9        29.91R
LE MARS *      PTCLDY    73  70  88 S10G17    29.88R
ORANGE CITY *  CLEAR     72  68  88 S9        29.88R
SHELDON *      CLEAR     70  68  94 S12       29.87R
SIOUX CITY     LGT RAIN  72  66  81 SE12      29.87S
6HR MIN TEMP:  72; 6HR MAX TEMP:  76; 6HR PCP: TRACE;

SPENCER        CLEAR     71  67  87 S10       29.90R
6HR MIN TEMP:  71; 6HR MAX TEMP:  74;

STORM LAKE *   CLEAR     70  68  94 S9        29.92R
$$

IAZ055>058-069>071-079>083-090>094-041300-
   SOUTHWEST IOWA

CITY           SKY/WX    TMP DP  RH WIND       PRES   REMARKS
ATLANTIC *     CLEAR     70  68  94 S6        29.94R
AUDUBON *      CLEAR     70  66  88 S3        29.95R
CLARINDA *     CLEAR     68  68 100 S5        29.95R
COUNCIL BLFS * CLEAR     70  68  94 SE7       29.93R
CRESTON *      CLEAR     70  68  94 S7        29.97R
LAMONI         PTCLDY    70  67  90 S6        29.96R
6HR MIN TEMP:  70; 6HR MAX TEMP:  73;

RED OAK *      MOCLDY    72  70  94 S7        29.93R
SHENANDOAH *   CLEAR     72  68  88 CALM      29.94R
$$

IAZ047>049-059>061-072>074-084-041300-
   CENTRAL IOWA

CITY           SKY/WX    TMP DP  RH WIND       PRES   REMARKS
AMES           CLEAR     67  67 100 CALM      29.94R
6HR MIN TEMP:  65; 6HR MAX TEMP:  74;

ANKENY *       CLEAR     68  68 100 CALM      29.94R
CHARITON *     CLEAR     68  66  94 S6        29.96R
DES MOINES     PTCLDY    71  66  84 S8        29.93R
6HR MIN TEMP:  71; 6HR MAX TEMP:  78;

GRINNELL*      CLEAR     70  66  88 S6        29.97R
KNOXVILLE *    CLEAR     68  66  94 S6        29.94R
MARSHALLTOWN   CLEAR     67  66  97 E7        29.95R
6HR MIN TEMP:  67; 6HR MAX TEMP:  76; 6HR PCP:  0.01;

PELLA *        CLEAR     68  68 100 CALM      29.96R
PERRY *          N/A     68  67  96 S3        29.93R
$$

IAZ004>006-015-016-023>025-035-036-041300-
   NORTH CENTRAL IOWA

CITY           SKY/WX    TMP DP  RH WIND       PRES   REMARKS
ALGONA *       CLEAR     72  68  88 S9        29.92R
CLARION *      CLEAR     70  68  94 SE8       29.93R
ESTHERVILLE    CLEAR     68  67  96 S7        29.90R
6HR MIN TEMP:  68; 6HR MAX TEMP:  72;

FORT DODGE *   CLEAR     72  64  78 S3        29.93R
MASON CITY     CLEAR     68  67  96 SE6       29.95R
6HR MIN TEMP:  65; 6HR MAX TEMP:  73;

FOREST CITY *  CLEAR     68  68 100 SE3       29.93R
IOWA FALLS *     N/A     68  68 100 SE3       29.96R
$$

IAZ007>011-017>019-026>030-037>042-050>054-066-041300-
   NORTHEAST IOWA

CITY           SKY/WX    TMP DP  RH WIND       PRES   REMARKS
CEDAR RAPIDS   CLEAR     68  68 100 SE3       29.96R
6HR MIN TEMP:  67; 6HR MAX TEMP:  73;

CHARLES CITY * CLEAR     68  68 100 E7        29.96S
CLINTON *      PTCLDY    68  66  94 E5        29.99S
DECORAH *      CLEAR     68  68 100 SE7       29.97S
DUBUQUE        CLEAR     69  68  96 E3        30.00R FOG
6HR MIN TEMP:  69; 6HR MAX TEMP:  73;

MONTICELLO *   MOCLDY    66  66 100 CALM      29.97R FOG
OELWEIN *      CLEAR     68  66  94 E5        29.98R FOG
WATERLOO       CLEAR     68  66  93 SE3       29.94R
6HR MIN TEMP:  67; 6HR MAX TEMP:  78; 6HR PCP: TRACE;

$$

IAZ064-065-067-068-078-041300-
   EAST CENTRAL IOWA

CITY           SKY/WX    TMP DP  RH WIND       PRES   REMARKS
DAVENPORT      MOCLDY    69  67  93 SE3       29.98R
6HR MIN TEMP:  67; 6HR MAX TEMP:  73;

IOWA CITY      PTCLDY    70  68  93 CALM      29.97R
6HR MIN TEMP:  69; 6HR MAX TEMP:  73;

MT. PLEASANT * PTCLDY    70  66  86 CALM      29.97S
MUSCATINE *    FOG       68  66  94 CALM      29.97R VSB 3/4
QUAD CITIES    MOCLDY    69  66  90 SE3       29.97R
6HR MIN TEMP:  67; 6HR MAX TEMP:  74;

$$

IAZ062-063-075>077-085>089-095>099-041300-
   SOUTHEAST IOWA

CITY           SKY/WX    TMP DP  RH WIND       PRES   REMARKS
BURLINGTON     CLEAR     70  70 100 S5        29.97R
6HR MIN TEMP:  70; 6HR MAX TEMP:  74;

FAIRFIELD *    CLEAR     70  66  88 S3        29.97R
FORT MADISON * CLEAR     72  70  94 CALM      29.98R
KEOKUK *       CLEAR     72  68  88 SW3       29.97R
OSKALOOSA *      N/A     67  65  95 SE5       29.96S
CENTERVILLE *  CLEAR     66  66 100 SE3       29.98R
OTTUMWA        CLEAR     69  68  96 S6        29.94R
6HR MIN TEMP:  69; 6HR MAX TEMP:  73;

WASHINGTON *     N/A    N/A N/A N/A MISG        N/A
$$

ABBREVIATIONS USED IN REMARKS
   TC - TEMPERATURES IN CELSIUS
  WCI - WIND CHILL INDEX
   HX - HEAT INDEX
  VSB - VISIBILITY
$$



USA.gov is the U.S. government's official web portal to all federal, state and local government web resources and services.